Tracking 18980 objects as of 20-Feb-2018
HD Live streaming from Space Station
objects crossing your sky now

FENGYUN 1C DEB

Track FENGYUN 1C DEB now!
10-day predictions


NORAD ID: 30017
Int'l Code: 1999-025MS
Perigee: 549.6 km
Apogee: 879.3 km
Inclination: 98.8 °
Period: 98.9 minutes
Semi major axis: 7085 km
RCS: 0.0357 m2 (small)
Launch date: May 10, 1999
Source: People's Republic of China (PRC)
Launch site: Taiyaun Space Center, China (TSC)

Note: This is SATELLITE DEBRIS
aabbcc
Your satellite tracking list
Your tracking list is empty




NASA's NSSDC Master Catalog

Two Line Element Set (TLE):
1 30017U 99025MS  18051.20967598  .00000030  00000-0  16173-4 0  9992
2 30017  98.7564 279.0734 0232611 265.6919  91.7668 14.55630473589194
Source of the keplerian elements: AFSPC